TimeMST,TemperatureF,Dew PointF,Humidity,Sea Level PressureIn,VisibilityMPH,Wind Direction,Wind SpeedMPH,Gust SpeedMPH,PrecipitationIn,Events,Conditions,WindDirDegrees,DateUTC
12:52 AM,30.9,28.0,89,30.11,10.0,WSW,3.5,-,N/A,,Clear,240,2013-02-07 07:52:00
1:52 AM,30.0,27.0,88,30.12,10.0,Calm,Calm,-,N/A,,Clear,0,2013-02-07 08:52:00
2:52 AM,30.0,26.1,85,30.12,10.0,WSW,8.1,-,N/A,,Clear,240,2013-02-07 09:52:00
3:52 AM,28.0,24.1,85,30.14,10.0,West,5.8,-,N/A,,Clear,260,2013-02-07 10:52:00
4:52 AM,28.0,23.0,81,30.13,10.0,West,5.8,-,N/A,,Clear,270,2013-02-07 11:52:00
5:52 AM,28.0,21.9,78,30.15,10.0,West,5.8,-,N/A,,Clear,260,2013-02-07 12:52:00
6:52 AM,25.0,19.9,81,30.17,10.0,WSW,3.5,-,N/A,,Clear,250,2013-02-07 13:52:00
7:52 AM,30.0,23.0,75,30.19,10.0,WSW,3.5,-,N/A,,Clear,250,2013-02-07 14:52:00
8:52 AM,34.0,24.1,67,30.19,10.0,WSW,5.8,-,N/A,,Clear,250,2013-02-07 15:52:00
9:52 AM,37.9,24.1,57,30.19,10.0,West,8.1,-,N/A,,Clear,260,2013-02-07 16:52:00
10:52 AM,41.0,27.0,57,30.19,10.0,Variable,4.6,-,N/A,,Clear,0,2013-02-07 17:52:00
11:52 AM,45.0,25.0,46,30.16,10.0,WNW,6.9,-,N/A,,Clear,290,2013-02-07 18:52:00
12:52 PM,46.9,21.0,36,30.13,10.0,NW,5.8,-,N/A,,Clear,320,2013-02-07 19:52:00
1:52 PM,48.0,19.0,32,30.11,10.0,WNW,10.4,-,N/A,,Clear,290,2013-02-07 20:52:00
2:52 PM,48.0,17.1,29,30.11,10.0,West,6.9,-,N/A,,Clear,280,2013-02-07 21:52:00
3:52 PM,46.9,21.0,36,30.11,10.0,SSW,5.8,-,N/A,,Clear,210,2013-02-07 22:52:00
4:52 PM,42.1,23.0,47,30.12,10.0,South,3.5,-,N/A,,Clear,190,2013-02-07 23:52:00
5:52 PM,32.0,21.0,64,30.15,10.0,East,5.8,-,N/A,,Clear,90,2013-02-08 00:52:00
6:52 PM,30.9,21.9,69,30.15,10.0,ENE,5.8,-,N/A,,Clear,70,2013-02-08 01:52:00
7:52 PM,30.9,21.0,67,30.14,10.0,Calm,Calm,-,N/A,,Clear,0,2013-02-08 02:52:00
8:52 PM,32.0,19.9,61,30.12,10.0,Variable,3.5,-,N/A,,Clear,0,2013-02-08 03:52:00
9:52 PM,33.1,19.9,59,30.10,10.0,Calm,Calm,-,N/A,,Clear,0,2013-02-08 04:52:00
10:52 PM,36.0,21.9,57,30.06,10.0,South,15.0,20.7,N/A,,Clear,180,2013-02-08 05:52:00
11:52 PM,37.9,19.9,48,30.04,10.0,South,18.4,25.3,N/A,,Clear,180,2013-02-08 06:52:00